| time (UTC) | temp F | wind direction | speed MPH | gust MPH | rain 1hr in | rain 24hr in | rain mn in | humidity % | barometer mb |
| 20260831150059 | 64 | 110 | 3.0 | 5.0 | 0.02 | 1.91 | 1.27 | 100 | 1012.0 |
| 20260831150003 | 64 | 103 | 2.0 | 5.0 | 0.02 | 1.91 | 1.27 | 100 | 1012.1 |
| 20260831144558 | 64 | 49 | 4.0 | 7.0 | 0.02 | 2.00 | 1.26 | 100 | 1013.2 |
| 20260831143108 | 64 | 299 | 0.0 | 3.0 | 0.04 | 2.00 | 1.26 | 100 | 1012.9 |
| 20260831141558 | 64 | 37 | 0.0 | 2.0 | 0.07 | 2.00 | 1.26 | 100 | 1012.8 |
| 20260831140058 | 64 | 212 | 1.0 | 2.0 | 0.12 | 2.00 | 1.25 | 100 | 1014.1 |
| 20260831140001 | 64 | 292 | 1.0 | 2.0 | 0.12 | 2.00 | 1.25 | 100 | 1014.3 |
| 20260831134601 | 64 | 76 | 0.0 | 2.0 | 0.15 | 2.11 | 1.24 | 100 | 1014.2 |
| 20260831133058 | 64 | 76 | 0.0 | 3.0 | 0.19 | 2.09 | 1.22 | 100 | 1014.9 |
| 20260831131609 | 64 | 134 | 1.0 | 3.0 | 0.31 | 2.06 | 1.19 | 100 | 1015.4 |
| 20260831130109 | 64 | 360 | 0.0 | 3.0 | 0.32 | 2.00 | 1.12 | 100 | 1015.5 |
| 20260831124602 | 64 | 297 | 2.0 | 4.0 | 0.48 | 2.04 | 1.09 | 100 | 1014.7 |
| 20260831123100 | 64 | 35 | 2.0 | 5.0 | 0.45 | 1.98 | 1.02 | 100 | 1015.4 |
| 20260831121606 | 63 | 132 | 1.0 | 3.0 | 0.34 | 1.83 | 0.87 | 100 | 1015.0 |
| 20260831120057 | 63 | 239 | 3.0 | 8.0 | 0.30 | 1.76 | 0.80 | 100 | 1014.3 |
| 20260831120001 | 63 | 210 | 4.0 | 8.0 | 0.30 | 1.75 | 0.79 | 100 | 1014.3 |
| 20260831114559 | 63 | 290 | 0.0 | 6.0 | 0.18 | 1.57 | 0.61 | 100 | 1015.0 |
| 20260831113101 | 63 | 98 | 1.0 | 4.0 | 0.16 | 1.53 | 0.56 | 100 | 1013.9 |
| 20260831111559 | 63 | 120 | 2.0 | 5.0 | 0.36 | 1.49 | 0.53 | 100 | 1014.5 |
| 20260831110105 | 63 | 134 | 1.0 | 6.0 | 0.32 | 1.45 | 0.49 | 100 | 1014.7 |
| 20260831110001 | 63 | 120 | 1.0 | 6.0 | 0.32 | 1.45 | 0.49 | 100 | 1014.9 |
| 20260831104558 | 63 | 273 | 1.0 | 4.0 | 0.26 | 1.40 | 0.43 | 100 | 1014.4 |
| 20260831103101 | 63 | 155 | 3.0 | 6.0 | 0.23 | 1.37 | 0.40 | 100 | 1013.5 |
| 20260831101603 | 63 | 286 | 4.0 | 8.0 | 0.00 | 1.13 | 0.17 | 100 | 1014.7 |
| 20260831100107 | 63 | 75 | 0.0 | 2.0 | 0.00 | 1.13 | 0.17 | 100 | 1012.6 |
| 20260831100000 | 63 | 75 | 0.0 | 2.0 | 0.00 | 1.13 | 0.17 | 100 | 1012.7 |
| 20260831094624 | 63 | 75 | 0.0 | 2.0 | 0.00 | 1.13 | 0.17 | 100 | 1012.3 |
| 20260831093058 | 63 | 75 | 0.0 | 2.0 | 0.00 | 1.13 | 0.17 | 100 | 1012.7 |
| 20260831091614 | 63 | 75 | 0.0 | 2.0 | 0.00 | 1.13 | 0.17 | 100 | 1012.8 |
| 20260831090059 | 63 | 75 | 1.0 | 2.0 | 0.00 | 1.13 | 0.17 | 100 | 1012.9 |
| 20260831090001 | 63 | 75 | 1.0 | 2.0 | 0.00 | 1.13 | 0.17 | 100 | 1012.9 |
| 20260831084601 | 63 | 75 | 0.0 | 2.0 | 0.00 | 1.15 | 0.17 | 100 | 1012.9 |
| 20260831083059 | 63 | 75 | 1.0 | 3.0 | 0.00 | 1.15 | 0.17 | 100 | 1013.2 |
| 20260831081600 | 63 | 75 | 1.0 | 2.0 | 0.00 | 1.15 | 0.17 | 100 | 1012.9 |
| 20260831080058 | 63 | 129 | 1.0 | 2.0 | 0.00 | 1.15 | 0.17 | 100 | 1013.1 |
| 20260831080002 | 63 | 129 | 1.0 | 2.0 | 0.00 | 1.15 | 0.17 | 100 | 1013.2 |
| 20260831074558 | 63 | 129 | 0.0 | 1.0 | 0.00 | 1.15 | 0.17 | 100 | 1013.3 |
| 20260831073102 | 63 | 129 | 0.0 | 2.0 | 0.01 | 1.15 | 0.17 | 100 | 1013.5 |
| 20260831071612 | 63 | 129 | 1.0 | 4.0 | 0.01 | 1.15 | 0.17 | 100 | 1013.3 |
| 20260831070058 | 63 | 100 | 0.0 | 0.0 | 0.01 | 1.15 | 0.17 | 100 | 1013.9 |
| 20260831070001 | 63 | 100 | 0.0 | 0.0 | 0.01 | 1.15 | 0.17 | 100 | 1013.9 |
| 20260831064609 | 63 | 100 | 0.0 | 0.0 | 0.01 | 1.15 | 0.17 | 100 | 1014.4 |
| 20260831063102 | 63 | 100 | 1.0 | 3.0 | 0.00 | 1.14 | 0.16 | 100 | 1013.7 |
| 20260831061559 | 63 | 100 | 0.0 | 3.0 | 0.01 | 1.14 | 0.16 | 100 | 1013.9 |
| 20260831060105 | 63 | 122 | 1.0 | 2.0 | 0.01 | 1.14 | 0.16 | 100 | 1013.9 |
| 20260831060001 | 63 | 122 | 0.0 | 2.0 | 0.01 | 1.14 | 0.16 | 100 | 1013.9 |
| 20260831054558 | 63 | 123 | 0.0 | 4.0 | 0.01 | 1.14 | 0.16 | 100 | 1013.7 |
| 20260831053100 | 63 | 123 | 1.0 | 3.0 | 0.01 | 1.14 | 0.16 | 100 | 1013.8 |
| 20260831051610 | 63 | 129 | 1.0 | 3.0 | 0.01 | 1.13 | 0.15 | 100 | 1013.8 |
| 20260831050058 | 63 | 29 | 0.0 | 3.0 | 0.03 | 1.13 | 0.15 | 100 | 1013.9 |
| 20260831050002 | 63 | 29 | 0.0 | 3.0 | 0.03 | 1.13 | 0.15 | 100 | 1013.9 |
| 20260831044558 | 63 | 110 | 2.0 | 5.0 | 0.07 | 1.13 | 0.15 | 100 | 1013.0 |
| 20260831043101 | 63 | 358 | 0.0 | 3.0 | 0.08 | 1.13 | 0.15 | 100 | 1014.9 |
| 20260831041558 | 63 | 319 | 4.0 | 6.0 | 0.10 | 1.12 | 0.14 | 100 | 1014.5 |
| 20260831040058 | 63 | 107 | 3.0 | 5.0 | 0.11 | 1.11 | 0.12 | 100 | 1014.4 |
| 20260831040002 | 63 | 107 | 2.0 | 5.0 | 0.11 | 1.11 | 0.12 | 100 | 1014.5 |
| 20260831034559 | 63 | 97 | 1.0 | 3.0 | 0.09 | 1.07 | 0.08 | 100 | 1016.0 |
| 20260831033059 | 63 | 62 | 3.0 | 5.0 | 0.08 | 1.06 | 0.07 | 100 | 1015.7 |
| 20260831031559 | 63 | 116 | 1.0 | 5.0 | 0.05 | 1.03 | 0.04 | 100 | 1015.1 |
| 20260831030058 | 63 | 57 | 1.0 | 3.0 | 0.02 | 1.00 | 0.01 | 100 | 1015.2 |
| 20260831030004 | 63 | 57 | 1.0 | 3.0 | 0.01 | 0.99 | 0.00 | 100 | 1015.1 |
| 20260831024600 | 63 | 199 | 0.0 | 5.0 | 0.00 | 0.99 | 0.98 | 100 | 1015.4 |
| 20260831023107 | 63 | 214 | 0.0 | 6.0 | 0.00 | 0.99 | 0.98 | 100 | 1014.6 |
| 20260831021601 | 63 | 92 | 0.0 | 2.0 | 0.00 | 0.99 | 0.98 | 100 | 1014.5 |
| 20260831020113 | 63 | 92 | 0.0 | 1.0 | 0.00 | 0.99 | 0.98 | 100 | 1014.6 |
| 20260831014558 | 63 | 92 | 0.0 | 1.0 | 0.00 | 0.99 | 0.98 | 100 | 1014.5 |
| 20260831013059 | 63 | 92 | 0.0 | 0.0 | 0.00 | 0.99 | 0.98 | 100 | 1014.9 |
| 20260831011607 | 63 | 92 | 0.0 | 1.0 | 0.00 | 0.99 | 0.98 | 100 | 1014.7 |
| 20260831010058 | 63 | 92 | 0.0 | 2.0 | 0.00 | 0.99 | 0.98 | 100 | 1014.9 |
| 20260831010003 | 63 | 92 | 0.0 | 2.0 | 0.00 | 0.99 | 0.98 | 100 | 1014.9 |
| 20260831004600 | 63 | 92 | 1.0 | 4.0 | 0.23 | 0.99 | 0.98 | 100 | 1014.9 |
| 20260831003059 | 63 | 188 | 0.0 | 3.0 | 0.26 | 0.99 | 0.98 | 100 | 1014.8 |
| 20260831001558 | 63 | 188 | 0.0 | 3.0 | 0.26 | 0.99 | 0.98 | 100 | 1014.6 |
| 20260831000059 | 63 | 20 | 2.0 | 8.0 | 0.26 | 0.99 | 0.98 | 100 | 1014.8 |
| 20260831000001 | 63 | 25 | 3.0 | 8.0 | 0.25 | 0.98 | 0.97 | 100 | 1014.7 |
| 20260830234610 | 63 | 316 | 5.0 | 10.0 | 0.01 | 0.75 | 0.73 | 100 | 1017.3 |
| 20260830233059 | 63 | 113 | 0.0 | 4.0 | 0.00 | 0.74 | 0.72 | 100 | 1014.6 |
| 20260830231558 | 63 | 91 | 1.0 | 2.0 | 0.00 | 0.74 | 0.72 | 100 | 1014.0 |
| 20260830230058 | 63 | 91 | 0.0 | 2.0 | 0.00 | 0.74 | 0.72 | 100 | 1014.1 |
| 20260830224606 | 63 | 89 | 1.0 | 3.0 | 0.00 | 0.75 | 0.72 | 100 | 1014.0 |
| 20260830223059 | 63 | 238 | 1.0 | 3.0 | 0.03 | 0.75 | 0.72 | 100 | 1014.1 |
| 20260830221559 | 63 | 241 | 1.0 | 3.0 | 0.07 | 0.75 | 0.72 | 100 | 1013.8 |
| 20260830220108 | 63 | 240 | 0.0 | 3.0 | 0.08 | 0.75 | 0.72 | 100 | 1013.3 |
| 20260830220001 | 63 | 240 | 0.0 | 3.0 | 0.08 | 0.75 | 0.72 | 100 | 1013.3 |
| 20260830214558 | 63 | 16 | 0.0 | 3.0 | 0.08 | 0.75 | 0.72 | 100 | 1013.2 |
| 20260830213119 | 63 | 89 | 0.0 | 4.0 | 0.05 | 0.72 | 0.69 | 100 | 1013.9 |
| 20260830211600 | 64 | 39 | 0.0 | 3.0 | 0.02 | 0.68 | 0.65 | 100 | 1014.5 |
| 20260830210000 | 64 | 98 | 0.0 | 3.0 | 0.01 | 0.67 | 0.64 | 100 | 1013.1 |
| 20260830204602 | 64 | 39 | 1.0 | 3.0 | 0.01 | 0.67 | 0.64 | 100 | 1013.3 |
| 20260830203107 | 64 | 37 | 0.0 | 3.0 | 0.04 | 0.67 | 0.64 | 100 | 1013.2 |
| 20260830201602 | 64 | 191 | 0.0 | 5.0 | 0.03 | 0.66 | 0.63 | 100 | 1013.2 |
| 20260830200057 | 64 | 143 | 1.0 | 2.0 | 0.05 | 0.66 | 0.63 | 100 | 1012.6 |
| 20260830200001 | 64 | 143 | 1.0 | 2.0 | 0.05 | 0.66 | 0.63 | 100 | 1012.6 |
| 20260830194558 | 64 | 82 | 2.0 | 4.0 | 0.06 | 0.66 | 0.63 | 100 | 1012.2 |
| 20260830193058 | 64 | 214 | 0.0 | 4.0 | 0.04 | 0.63 | 0.60 | 100 | 1013.6 |
| 20260830191557 | 64 | 359 | 0.0 | 6.0 | 0.04 | 0.62 | 0.59 | 100 | 1014.2 |
| 20260830190058 | 64 | 17 | 1.0 | 3.0 | 0.05 | 0.61 | 0.57 | 100 | 1014.1 |
| 20260830184607 | 64 | 36 | 1.0 | 3.0 | 0.07 | 0.61 | 0.56 | 100 | 1013.7 |
| 20260830183101 | 64 | 46 | 1.0 | 3.0 | 0.08 | 0.60 | 0.56 | 100 | 1013.9 |
| 20260830181600 | 64 | 23 | 1.0 | 2.0 | 0.07 | 0.59 | 0.55 | 100 | 1014.5 |
| 20260830180058 | 64 | 22 | 0.0 | 2.0 | 0.04 | 0.56 | 0.52 | 100 | 1015.2 |
| 20260830174601 | 64 | 359 | 1.0 | 2.0 | 0.02 | 0.54 | 0.50 | 100 | 1015.6 |
| 20260830173058 | 64 | 289 | 0.0 | 2.0 | 0.00 | 0.52 | 0.48 | 100 | 1016.2 |
| 20260830171603 | 64 | 289 | 0.0 | 1.0 | 0.00 | 0.52 | 0.48 | 100 | 1016.0 |
| 20260830170057 | 64 | 92 | 1.0 | 3.0 | 0.00 | 0.52 | 0.48 | 100 | 1015.6 |
| 20260830170005 | 64 | 92 | 1.0 | 3.0 | 0.01 | 0.52 | 0.48 | 100 | 1015.6 |
| 20260830164558 | 64 | 91 | 2.0 | 4.0 | 0.05 | 0.52 | 0.48 | 100 | 1015.8 |
| 20260830163059 | 64 | 325 | 1.0 | 3.0 | 0.08 | 0.52 | 0.48 | 100 | 1016.7 |
| 20260830161612 | 64 | 300 | 1.0 | 4.0 | 0.11 | 0.52 | 0.48 | 100 | 1015.8 |
| 20260830160057 | 64 | 11 | 1.0 | 4.0 | 0.11 | 0.51 | 0.47 | 100 | 1015.5 |
| 20260830154558 | 64 | 52 | 1.0 | 2.0 | 0.10 | 0.47 | 0.43 | 100 | 1015.1 |
| 20260830153102 | 64 | 51 | 0.0 | 3.0 | 0.10 | 0.43 | 0.39 | 100 | 1015.9 |
| 20260830151604 | 64 | 230 | 1.0 | 4.0 | 0.11 | 0.41 | 0.37 | 100 | 1016.8 |